Retour au catalogue

FREGAT DEB

ActifUNKNOWN
NORAD 49271·DEBRIS·🇷🇺 Russia

Lancé Jul 18, 2011 depuis Baikonur Cosmodrome

Loading…

Prochains Passages (prochaines 24 heures)

TLE

FraisSource: Space-Track

Époque: Sep 13, 2026, 17:37 UTC

1 49271U 11037PF  26256.73444482  .00015379  00000-0  21697-1 0  9993
2 49271  51.6442  95.2041 0941670 119.1674 250.6712 12.44406137236066

Suivez FREGAT DEB en temps réel avec AllMySat

Download on the App Store